This is the latest recevied weather packets stored in our database for station/object W9LRT-WX. If no packets are shown the sender has not sent any weather packets the latest 10 day(s).
| Time | Temp. | Humidity | Pressure | Rain* | Wind** | Luminosity | Snow |
|---|---|---|---|---|---|---|---|
| 1777873826 | 10.56° C | 78% | 1006.2 hPa | 0 mm | - | 0 W/m² | - |
| 1777872926 | 10.56° C | 78% | 1006.3 hPa | 0 mm | - | 0 W/m² | - |
| 1777872025 | 10.56° C | 78% | 1006.4 hPa | 0 mm | - | 0 W/m² | - |
| 1777871125 | 10.56° C | 78% | 1006.5 hPa | 0 mm | - | 0 W/m² | - |
| 1777870226 | 10.56° C | 78% | 1006.6 hPa | 0 mm | - | 0 W/m² | - |
| 1777869321 | 10.56° C | 78% | 1006.7 hPa | 0 mm | - | 0 W/m² | - |
| 1777868421 | 10.56° C | 78% | 1006.8 hPa | 0 mm | - | 0 W/m² | - |
| 1777867523 | 10.56° C | 77% | 1006.7 hPa | 0 mm | - | 0 W/m² | - |
| 1777866623 | 10.56° C | 77% | 1006.8 hPa | 0 mm | - | 0 W/m² | - |
| 1777865721 | 10.56° C | 77% | 1006.9 hPa | 0 mm | - | 0 W/m² | - |
| 1777864822 | 11.11° C | 76% | 1007 hPa | 0 mm | - | 0 W/m² | - |
| 1777863922 | 11.11° C | 76% | 1007 hPa | 0 mm | - | 0 W/m² | - |
| 1777863022 | 10.56° C | 77% | 1007.1 hPa | 0 mm | - | 0 W/m² | - |
| 1777862122 | 11.11° C | 77% | 1006.9 hPa | 0 mm | - | 0 W/m² | - |
| 1777861221 | 10.56° C | 78% | 1007 hPa | 0 mm | - | 0 W/m² | - |
| 1777860322 | 10.56° C | 81% | 1007.1 hPa | 0 mm | - | 0 W/m² | - |
| 1777859423 | 10.56° C | 83% | 1007.1 hPa | 0 mm | - | 0 W/m² | - |
| 1777858522 | 10.56° C | 83% | 1007.1 hPa | 0 mm | - | 0 W/m² | - |
| 1777857622 | 10.56° C | 82% | 1007.2 hPa | 0 mm | - | 0 W/m² | - |
| 1777856722 | 11.11° C | 82% | 1007.1 hPa | 0 mm | - | 0 W/m² | - |
| 1777855821 | 11.67° C | 82% | 1007.1 hPa | 0 mm | - | 0 W/m² | - |
| 1777854922 | 11.67° C | 81% | 1007.1 hPa | 0 mm | - | 9 W/m² | - |
| 1777854017 | 11.67° C | 79% | 1007.1 hPa | 0 mm | - | 19 W/m² | - |
| 1777853116 | 12.22° C | 78% | 1007.4 hPa | 0 mm | - | 33 W/m² | - |
| 1777852215 | 12.22° C | 78% | 1007.5 hPa | 0 mm | - | 70 W/m² | - |
* Rain latest hour (hover to see other rain measurements)
** Current wind speed in m/s (hover to see current wind gust speed)